CZ-6A DEB, 56588

Orbit data source: Space-Track

CZ-6A DEB, 56588 is space debris in SSO originally from a launch on Fri, 11 Nov 2022 UTC launched from the Taiyaun Space Center, China (TSC). Debris objects in space refer to the collection of defunct objects orbiting the Earth. Examples of debris include non-operational satellites, rocket bodies, and fragments generated from explosions, collisions, or faulty payload assembly.

Loading next visibility...
Identifier
56588, 2022-151ADL
Orbit
SSO
Country
Flag of CNCN / PRC
Related business
Manufacturer
SAST
Mission
Spacecraft
Bus & Motor
Unknown
Mass
Unknown
Launch date (UTC)
2022-11-11 (3 years ago)
Launch vehicle
Unknown
Launch site
Taiyaun Space Center, China (TSC)
Object type
Payload
Rocket body
Debris
Shape & HBR
Unknown shape, 0.1 m
Radar Cross Section
Small (<0.1 m²)

Expand to show TLE details & history
Last TLE update: 9 hours ago

TLE from 9 hours ago
0 CZ-6A DEB
1 56588U 22151ADL 25353.16046891  .00009548  00000-0  14515-2 0  9990
2 56588  98.6409  55.9959 0066012  11.5944 348.6764 14.72760252150955
Epoch: 2025-12-19T03:51Z
TLE epoch observation values (Epoch: 2025-12-19T03:51:04.513Z)
Latitude
-0.00002°
Longitude
-89.77851°
Altitude
609.755 km
Speed
7.579 km/s
True Right ascension
03h 43m 59s
True Declination
0° 00' 00"
Sunlit
Object was in full shadow at epoch
Visualization orbit readout
Latitude
Unknown
Longitude
Unknown
Altitude
Unknown
Speed
Unknown
Apparent Right ascension
Unknown
Apparent Declination
Unknown
Sunlit
N/A
Visualization observer readout
Local Sidereal Time
11:54:13
Azimuth
Unknown
Elevation
Unknown
Doppler factor
Unknown
Orbital elements
Apogee altitude
695.745 km
Perigee altitude
602.965 km
Semi-major axis
7,027.492 km
Eccentricity
0.0066
Inclination
98.6409°
RAAN
55.9959°
Arg. of periapsis
11.5944°
True anomaly
348.52666°
Mean anomaly
348.6764°
Eccentric anomaly
348.60165°
Mean motion
3.6842 °/min
Orbital period
97.71 mins
BSTAR
0.0014515
Loading maneuver chart data...
Computing Atmospheric mass density...
Loading historical data...
Loading historical data...
Loading historical data...
Loading historical data...
Loading historical data...
Loading historical data...
Loading historical data...

Documentation

Showing up to 5 results
|